Lid_Strength_Index
-0 -0 -0 -0 -0 0 0 0 0 -0 -0 -0 -0 -1 -1 -0 1 6 8 5 3 -1 0 6 8 8 8 8 8 10 13 15 15 14 14 12 13 12 13 14 14 14 14 13 13
-0 0 0 0 0 0 0 0 0 0 -0 -0 -0 -0 -0 0 6 8 2 0 -2 -1 7 8 9 9 10 10 10 12 14 14 13 13 13 12 13 13 14 15 16 16 14 14 14
1 0 0 0 0 0 0 0 0 0 0 0 0 -0 0 2 8 8 -0 -1 -1 -0 7 8 8 9 11 10 12 13 14 12 12 12 12 13 13 13 14 15 15 16 16 15 15
1 1 1 1 0 0 0 1 0 0 0 0 0 -0 1 5 12 7 -1 -1 -0 5 7 8 9 11 12 12 11 13 12 12 11 11 12 13 12 14 14 14 13 14 15 16 16
2 2 1 1 1 0 0 1 0 0 0 0 0 0 5 9 9 6 2 3 7 7 9 9 10 11 13 13 12 13 12 12 11 11 12 12 13 13 14 15 14 15 15 16 16
2 2 1 1 1 0 0 1 1 0 0 0 -0 1 7 11 6 5 7 7 8 8 9 9 11 10 11 12 13 13 12 12 12 12 12 13 14 14 15 15 16 15 16 16 16
1 2 1 1 1 0 0 1 1 1 0 0 -0 3 8 8 7 6 7 8 8 8 9 9 9 10 11 12 11 12 13 13 13 12 12 13 14 14 14 15 16 16 16 16 16
1 2 1 1 1 1 0 1 1 1 -0 0 0 5 10 6 7 6 8 8 8 8 8 9 9 10 11 11 12 13 14 15 13 12 13 13 15 13 14 15 16 17 17 16 16
1 2 1 1 1 1 1 1 1 0 0 0 4 7 10 4 7 6 8 9 9 9 9 8 9 11 12 14 15 15 17 17 14 12 14 14 16 14 14 15 16 17 17 17 18
2 1 1 1 1 1 1 1 1 2 3 4 6 8 9 9 7 7 8 8 9 9 9 10 12 13 14 14 16 16 17 17 17 15 15 15 15 14 15 15 16 17 17 17 18
2 1 1 1 1 1 3 7 8 9 8 10 11 9 8 6 7 8 9 9 9 10 12 11 13 15 13 13 14 16 17 17 16 14 15 15 15 12 15 16 17 19 18 18 19
1 1 1 1 1 1 7 10 9 9 11 10 9 9 7 7 10 9 9 11 11 12 12 13 14 13 13 13 15 16 17 17 15 15 15 16 16 14 15 15 15 16 18 18 19
1 1 1 2 2 6 9 10 6 8 12 11 8 9 8 8 10 10 10 11 12 13 13 14 13 13 14 15 15 16 17 17 16 16 16 18 20 16 16 15 15 15 16 17 18
1 1 1 2 6 8 8 7 6 8 16 14 11 9 9 10 12 10 10 11 12 12 13 14 13 14 15 15 15 17 15 16 16 18 20 18 21 19 17 16 17 17 18 18 19
2 1 2 3 9 10 7 7 8 11 22 13 11 9 10 12 12 12 10 11 12 13 13 13 15 15 16 15 14 15 15 17 17 18 21 20 21 20 19 18 16 17 18 18 18
2 2 3 5 7 8 7 8 10 16 21 15 11 12 12 12 12 11 12 11 12 13 15 14 14 15 15 15 14 14 16 17 19 20 23 20 20 22 19 18 17 18 18 18 19
2 1 4 6 8 7 7 10 16 20 15 15 13 12 13 14 13 13 13 14 14 16 16 16 15 15 14 16 15 15 17 20 21 24 22 21 23 18 15 16 17 18 18 19 19
2 2 4 4 6 7 10 13 20 17 16 13 12 13 14 13 14 13 14 15 14 14 17 17 17 16 14 15 15 17 16 19 24 24 21 21 22 19 17 18 19 18 18 19 19
4 5 5 6 6 6 12 17 16 15 14 13 13 15 15 13 13 15 16 16 13 13 14 17 18 17 16 16 15 17 19 17 20 31 27 21 21 18 19 19 20 19 20 20 19
5 6 7 7 8 10 14 14 15 12 12 12 14 13 16 14 15 15 16 15 13 13 13 14 16 17 18 17 18 17 16 20 21 26 28 23 22 19 18 19 21 21 21 20 20
5 8 7 6 8 11 15 15 14 12 11 12 14 15 14 14 14 16 14 14 13 14 13 14 15 18 18 19 18 19 20 19 19 19 23 26 20 18 16 17 20 21 20 20 20
7 12 9 5 9 12 14 15 12 14 12 13 14 14 14 15 15 16 16 13 12 13 14 14 16 19 19 20 19 19 18 17 20 22 22 21 19 17 17 17 19 20 19 20 19
9 10 8 8 15 13 14 13 11 13 12 12 13 13 13 14 15 16 14 13 14 14 15 15 18 23 20 20 20 20 19 17 18 18 19 21 19 19 19 20 19 20 20 19 20
9 13 11 10 11 14 15 15 14 12 12 12 12 11 13 14 12 13 14 13 14 14 11 11 16 17 18 17 19 21 20 19 17 19 18 18 17 16 14 16 19 20 20 20 19
9 12 12 14 13 12 13 15 15 15 13 13 14 14 14 16 15 15 14 16 15 13 14 13 15 17 14 14 17 16 16 20 19 17 18 16 17 15 13 13 14 17 19 20 20
9 10 11 11 12 13 12 14 15 15 14 15 15 14 13 15 15 16 13 13 13 18 17 16 16 17 18 16 16 17 16 16 18 17 16 16 17 13 11 12 13 18 19 20 19
5 6 9 11 12 13 14 13 13 12 12 12 13 13 14 13 11 11 13 12 12 14 19 19 19 21 19 17 17 20 18 16 15 15 15 18 15 13 13 17 17 19 19 19 19